This demonstration page uses our WeatherBlox Daily Observations layout. Learn more.

Left ArrowRight Arrow

41.12389, -100.76542

Hourly Observations for March 3, 2015

Temp ( °F °C ) Dew Point ( °F °C ) Humidity (%) Winds ( mph kmh ) Pressure ( in mb ) Visibility ( mi km ) Precip ( " mm )
12:53 am 00:53 Cloudy 28 -2.2 22 -5.6 78 78 SE 6 9 29.69 1006 10 16 0.00 0.00
1:53 am 01:53 Cloudy 28 -2.2 22 -5.6 78 78 SE 3 6 29.67 1005 10 16 0.00 0.00
2:53 am 02:53 Cloudy 28 -2.2 23 -5 81 81 E 5 7 29.65 1004 10 16 0.00 0.00
3:34 am 03:34 Cloudy 27 -3 23 -5 86 86 ENE 6 9 29.71 1006 10 16 0.00 0.00
3:53 am 03:53 Cloudy 27 -2.8 23 -5 85 85 Calm 29.65 1004 10 16 0.00 0.00
4:53 am 04:53 Cloudy 28 -2.2 24 -4.4 85 85 NW 9 15 29.69 1006 10 16 0.00 0.00
5:53 am 05:53 Cloudy 28 -2.2 25 -3.9 88 88 WNW 9 15 29.73 1007 9 14 0.00 0.00
6:53 am 06:53 Cloudy 29 -1.7 26 -3.3 89 89 W 8 13 29.78 1009 10 16 0.00 0.00
7:05 am 07:05 Cloudy 30 -1 27 -3 86 86 WNW 9 15 29.83 1010 10 16 0.00 0.00
7:27 am 07:27 Cloudy 29 -1.7 23 -5 78 78 NNW 30 48 29.85 1011 10 16 0.00 0.00
7:41 am 07:41 Cloudy 27 -3 19 -7 74 74 N 25 41 29.91 1013 10 16 0.00 0.00
7:53 am 07:53 Cloudy 27 -2.8 18 -7.8 69 69 N 25 41 29.87 1011 10 16 0.00 0.00
8:53 am 08:53 Cloudy 22 -5.6 13 -10.6 68 68 N 24 39 29.97 1015 10 16 0.00 0.00
9:02 am 09:02 Cloudy 22 -5.6 12 -11.1 66 66 N 29 46 30.03 1017 10 16 0.00 0.00
9:16 am 09:16 Cloudy 22 -5.6 12 -11.1 66 66 N 26 43 30.09 1019 10 16 0.00 0.00
9:30 am 09:30 Cloudy 22 -5.6 11 -11.7 63 63 N 28 44 30.09 1019 10 16 0.00 0.00
9:53 am 09:53 Cloudy 24 -4.4 12 -11.1 60 60 N 23 37 30.00 1016 10 16 0.00 0.00
10:23 am 10:23 Cloudy 23 -5 11 -11.7 60 60 N 24 39 30.09 1019 10 16 0.00 0.00
10:53 am 10:53 Cloudy 23 -5 9 -12.8 55 55 N 24 39 30.04 1017 10 16 0.00 0.00
11:00 am 11:00 Cloudy 25 -3.9 10 -12.2 53 53 N 23 37 30.09 1019 10 16 0.00 0.00
11:09 am 11:09 Mostly Cloudy 25 -3.9 9 -12.8 50 50 N 24 39 30.09 1019 10 16 0.00 0.00
11:53 am 11:53 Cloudy 26 -3.3 9 -12.8 48 48 N 22 35 30.06 1018 10 16 0.00 0.00
12:53 pm 12:53 Cloudy 28 -2 9 -13 43 43 N 18 30 30.09 1019 10 16 0.00 0.00
1:53 pm 13:53 Mostly Cloudy 30 -1.1 10 -12.2 43 43 N 16 26 30.03 1017 10 16 0.00 0.00
2:53 pm 14:53 Mostly Cloudy 29 -1.7 9 -12.8 43 43 N 21 33 30.02 1017 10 16 0.00 0.00
3:53 pm 15:53 Sunny 29 -1.7 5 -15 36 36 N 20 31 30.01 1016 10 16 0.00 0.00
4:53 pm 16:53 Sunny 27 -2.8 6 -14.4 41 41 N 18 30 30.02 1017 10 16 0.00 0.00
5:53 pm 17:53 Sunny 24 -4.4 6 -14.4 46 46 N 13 20 30.04 1017 10 16 0.00 0.00
6:53 pm 18:53 Mostly Cloudy 22 -5.6 2 -16.7 42 42 N 13 20 30.08 1019 10 16 0.00 0.00
7:53 pm 19:53 Cloudy 21 -6.1 2 -16.7 43 43 N 10 17 30.11 1020 10 16 0.00 0.00
8:53 pm 20:53 Cloudy 20 -6.7 3 -16.1 48 48 NNW 9 15 30.16 1021 10 16 0.00 0.00
9:53 pm 21:53 Cloudy with Light Snow 18 -7.8 9 -12.8 68 68 N 8 13 30.20 1023 7 11 0.00 0.03
10:53 pm 22:53 Cloudy with Light Snow 16 -8.9 12 -11.1 84 84 N 6 9 30.22 1023 9 14 0.00 0.03
11:14 pm 23:14 Cloudy with Light Snow 16 -9 12 -11 86 86 N 3 6 30.36 1028 4 6 0.00 0.00
11:33 pm 23:33 Cloudy with Light Snow 16 -9 12 -11 86 86 N 3 6 30.36 1028 8 13 0.00 0.00
11:53 pm 23:53 Cloudy 16 -8.9 12 -11.1 84 84 NNE 6 9 30.22 1023 9 14 0.01 0.25

Powered by AerisWeather